Dar Es Salaam, Tanzania

5:16 PM EAT on May 27, 2018 (GMT +0300)
Dar es Salaam International Airport

Weather History for HTDA - December, 2013

Change the Weather History Date:

Saturday, December 14, 2013

  Actual Average Record
Temperature  
Mean Temperature 84 °F -  
Max Temperature 91 °F 84 °F 93 °F (2012)
Min Temperature 78 °F 76 °F 70 °F (2012)
Cooling Degree Days 20    
Growing Degree Days 34 (Base 50)    
Moisture  
Dew Point 77 °F    
Average Humidity 83    
Maximum Humidity 94    
Minimum Humidity 62    
Precipitation  
Precipitation 0.00 in 0.13 in - ()
Sea Level Pressure  
Sea Level Pressure 29.87 in    
Wind  
Wind Speed 18 mph ()    
Max Wind Speed 83 mph    
Max Gust Speed -    
Visibility 8.1 miles    
Events      
Averages and records for this station are not official NWS values.
T = Trace of Precipitation, MM = Missing Value Source: Averaged Metar Reports

Daily Weather History Graph

Daily Weather History Graph

Search for Another Location

Airport or City:

Astronomy

Dec. 14, 2013 Rise Set
Actual Time 6:02 AM EAT 6:33 PM EAT
Civil Twilight 5:39 AM EAT 6:56 PM EAT
Nautical Twilight 5:12 AM EAT 7:23 PM EAT
Astronomical Twilight 4:45 AM EAT 7:49 PM EAT
Moon 4:14 PM EAT (12/14) 3:33 AM EAT (12/14)
Length of Visible Light 13h 16m
Length of Day
12h 31m
Waxing Gibbous, 92% of the Moon is Illuminated
Dec 14
Waxing Gibbous
Dec 17
Full
Dec 25
Last Quarter
Jan 1
New
Jan 8
First Quarter

Hourly Weather History & Observations

Time (EAT) Temp. Heat Index Dew Point Humidity Pressure Visibility Wind Dir Wind Speed Gust Speed Precip Events Conditions
12:00 AM - - 75 °F % 29.87 in 1 mi NNE 82.9 mph - -   Scattered Clouds
12:00 AM 80.6 °F 86.2 °F 75.2 °F 84% 29.86 in 6.2 mi North 10.4 mph - N/A   Partly Cloudy
1:00 AM 80.6 °F 86.2 °F 75.2 °F 84% 29.83 in 6.2 mi North 9.2 mph - N/A   Partly Cloudy
2:00 AM 80.6 °F 86.2 °F 75.2 °F 84% 29.83 in 6.2 mi North 8.1 mph - N/A   Partly Cloudy
3:00 AM 80.6 °F 87.1 °F 77.0 °F 89% 29.83 in 6.2 mi North 8.1 mph - N/A   Scattered Clouds
4:00 AM 78.8 °F - 77.0 °F 94% 29.83 in 6.2 mi NNE 6.9 mph - N/A   Scattered Clouds
5:00 AM 78.8 °F - 77.0 °F 94% 29.86 in 6.2 mi North 6.9 mph - N/A   Partly Cloudy
6:00 AM 79 °F - 77 °F 91% 29.90 in 19 mi North 5.8 mph - -   Mostly Cloudy
6:00 AM 78.8 °F - 77.0 °F 94% 29.89 in 6.2 mi North 5.8 mph - N/A   Partly Cloudy
7:00 AM 80.6 °F 87.1 °F 77.0 °F 89% 29.89 in 6.2 mi North 5.8 mph - N/A   Partly Cloudy
8:00 AM 82.4 °F 90.9 °F 77.0 °F 84% 29.92 in 6.2 mi North 10.4 mph - N/A   Partly Cloudy
9:00 AM 85 °F - 77 °F 72% 29.94 in 19 mi NNE 29.1 mph - -   Mostly Cloudy
9:00 AM 84.2 °F 94.1 °F 77.0 °F 79% 29.92 in 6.2 mi NNE 15.0 mph - N/A   Partly Cloudy
10:00 AM 87.8 °F 99.7 °F 77.0 °F 70% 29.92 in 6.2 mi North 11.5 mph - N/A   Partly Cloudy
12:00 PM - - 90 °F %  in 19 mi Calm Calm - -  
12:00 PM 89.6 °F 99.8 °F 75.2 °F 62% 29.89 in 6.2 mi North 11.5 mph - N/A   Partly Cloudy
2:00 PM 89.6 °F 104.7 °F 78.8 °F 70% 29.83 in 6.2 mi NNE 12.7 mph - N/A   Partly Cloudy
3:00 PM 86.0 °F 96.9 °F 77.0 °F 74% 29.80 in 6.2 mi NNE 13.8 mph - N/A   Partly Cloudy
7:00 PM 82.4 °F 90.9 °F 77.0 °F 84% 29.83 in 6.2 mi NNE 13.8 mph - N/A   Partly Cloudy
8:00 PM 82.4 °F 90.9 °F 77.0 °F 84% 29.86 in 6.2 mi NNE 13.8 mph - N/A   Partly Cloudy
9:00 PM 82 °F - 78 °F 83% 29.89 in 19 mi NNE 13.8 mph - -   Mostly Cloudy
9:00 PM 82.4 °F 90.9 °F 77.0 °F 84% 29.89 in 6.2 mi NNE 13.8 mph - N/A   Partly Cloudy
10:00 PM 82.4 °F 90.9 °F 77.0 °F 84% 29.89 in 6.2 mi NNE 13.8 mph - N/A   Partly Cloudy
11:00 PM 82.4 °F 90.9 °F 77.0 °F 84% 29.89 in 6.2 mi NNE 9.2 mph - N/A   Partly Cloudy